Location: Newark
(36.7482°N, 42.3014°E)
Time: 10:25:13
(UTC+00:00)

ISS - Visible Passes

Search period start: 17 October 2019 00:00
Search period end: 27 October 2019 00:00
Orbit: 411 x 421 km, 51.6° (Epoch: 17 October)

Date Brightness Start Highest point End Pass type
(mag) Time Alt. Az. Time Alt. Az. Time Alt. Az.
23 Oct -1.5 02:27:21 10° S 02:30:13 26° SE 02:33:06 10° ENE visible
24 Oct -0.8 01:39:53 10° SSE 01:41:49 14° SE 01:43:44 10° E visible
25 Oct -3.8 02:26:36 12° SW 02:29:38 89° SE 02:33:01 10° NE visible
26 Oct -2.9 01:40:55 44° SSE 01:41:06 45° SE 01:44:21 10° ENE visible
